[[{"header":{"parameterUnit":"m.s-1","parameterCategory":1,"la1":30.2992,"la2":30.254,"lo1":-89.0895,"lo2":-89.0443,"dy":0.0025,"dx":0.0025,"nx":19,"ny":19,"refTime":"2026-04-05T09:00:00:Z","depth":0,"parameterNumber":2,"parameterNumberName":"U-component_of_WINDS"},"data":[0,0,0,1.9178,1.9183,1.9432,1.9433,1.9742,1.9745,0,0,0,0,0,0,0,0,0,0,0,1.9094,1.9095,1.9178,1.9184,1.9432,1.9433,1.9742,1.9745,0,0,0,0,0,0,0,0,0,0,0,1.9093,1.9095,1.9097,1.9185,1.9432,1.9433,1.9741,1.9558,0,0,0,0,0,0,0,0,0,0,1.9319,1.9228,1.9094,1.9097,1.9186,1.9432,1.9433,1.9549,1.9569,1.9624,0,1.9664,0,1.9709,1.9764,1.9765,0,0,0,1.9194,1.9211,1.9288,1.9097,1.9188,1.9431,1.9323,1.9561,1.9583,1.965,1.9669,1.968,1.9714,1.9766,1.9768,2.0037,2.0038,0,0,1.918,1.9133,1.9272,1.9302,1.9256,1.9315,1.933,1.9575,1.9594,1.967,1.9688,1.9719,1.9768,1.977,2.0036,2.0037,0,0,0,1.9134,1.9123,1.9194,1.9289,1.9334,1.9322,1.934,1.9583,1.961,1.9691,1.9723,1.977,1.9773,2.0036,2.0037,2.003,0,0,0,1.9126,1.9096,1.9188,1.9162,1.9329,1.946,1.9342,1.9593,1.9622,1.9721,1.977,1.9776,2.0035,2.0036,2.0028,2.0035,0,0,0,1.9081,1.9091,1.9123,1.9159,1.9263,1.9457,1.9499,1.96,1.964,1.9765,1.9777,2.0034,2.0036,2.0027,2.0033,2.0093,0,0,0,1.9021,1.9114,1.9122,1.9239,1.9261,1.9449,1.9497,1.9641,1.9747,1.9771,2.0035,2.0037,2.0026,2.0031,2.0091,2.0136,2.0149,0,0,1.9113,1.9124,1.9196,1.9211,1.9384,1.9415,1.9591,1.9735,1.9792,1.9954,1.9961,2.0029,2.0033,2.0093,2.0241,2.0251,0,0,0,1.921,1.9262,1.9318,1.9415,1.9524,1.9621,1.9741,1.9796,1.9935,1.9863,2.0068,2.0072,2.0109,2.0133,2.0142,2.0178,2.0045,2.0045,2.0045,1.9273,1.9339,1.9465,1.956,1.9654,1.9779,1.9863,1.9958,1.9998,2.0046,2.0094,2.0175,2.0201,2.0208,2.0245,2.0122,2.0122,2.0122,2.0122,1.9415,1.95,1.955,1.9689,1.976,1.9881,2.0007,2.0031,2.0157,2.0143,2.018,2.016,2.0217,2.0253,2.0123,2.0123,2.0123,2.0123,2.0123,1.9465,1.9516,1.9578,1.9727,1.9835,1.9932,2.005,2.0111,2.017,2.0206,2.0266,2.0266,2.0276,2.023,2.023,2.023,2.0231,2.0231,2.0231,1.9491,1.9562,1.9651,1.9776,1.9848,1.995,2.0079,2.0153,2.0252,2.0288,2.0289,2.0326,2.0209,2.0179,2.0236,2.0235,2.0234,2.0234,2.0234,1.9612,1.9595,1.9732,1.9804,1.9958,2.0064,2.014,2.0287,2.0358,2.0416,2.0447,2.0349,2.0366,2.036,2.0335,2.043,2.043,2.043,2.043,1.9654,1.9668,1.9824,1.9935,2.0051,2.0135,2.0295,2.0398,2.0502,2.0552,2.0548,2.052,2.0511,2.0534,2.0524,2.0502,2.0637,2.0637,2.0637,1.9734,1.9762,1.9882,1.998,2.0106,2.0215,2.0368,2.0499,2.0615,2.0647,2.0593,2.0584,2.0541,2.0523,2.0553,2.0535,2.0497,0,0]},{"header":{"parameterUnit":"m.s-1","parameterCategory":1,"la1":30.2992,"la2":30.254,"lo1":-89.0895,"lo2":-89.0443,"dy":0.0025,"dx":0.0025,"nx":19,"ny":19,"refTime":"2026-04-05T09:00:00:Z","depth":0,"parameterNumber":3,"parameterNumberName":"V-component_of_WINDS"},"data":[0,0,0,-4.5979,-4.5978,-4.5909,-4.5909,-4.5823,-4.5822,0,0,0,0,0,0,0,0,0,0,0,-4.6005,-4.6005,-4.5979,-4.5978,-4.5909,-4.5909,-4.5823,-4.5822,0,0,0,0,0,0,0,0,0,0,0,-4.6005,-4.6005,-4.6004,-4.5977,-4.591,-4.5909,-4.5823,-4.5873,0,0,0,0,0,0,0,0,0,0,-4.5938,-4.5969,-4.6005,-4.6004,-4.5977,-4.591,-4.5909,-4.5875,-4.587,-4.5856,0,-4.585,0,-4.5835,-4.5817,-4.5816,0,0,0,-4.5971,-4.5974,-4.5951,-4.6004,-4.5976,-4.591,-4.5938,-4.5872,-4.5866,-4.5848,-4.5848,-4.5845,-4.5834,-4.5816,-4.5816,-4.5769,-4.5769,0,0,-4.5975,-4.5994,-4.5955,-4.5948,-4.5964,-4.5941,-4.5936,-4.5868,-4.5867,-4.5848,-4.5843,-4.5832,-4.5816,-4.5815,-4.5769,-4.5769,0,0,0,-4.599,-4.5997,-4.5976,-4.5951,-4.5939,-4.5939,-4.5934,-4.587,-4.5862,-4.5842,-4.5831,-4.5815,-4.5814,-4.5769,-4.5769,-4.5793,0,0,0,-4.5992,-4.6006,-4.5978,-4.5989,-4.5941,-4.5905,-4.5938,-4.5866,-4.5858,-4.5832,-4.5815,-4.5813,-4.5769,-4.5769,-4.5792,-4.58,0,0,0,-4.6007,-4.6008,-4.6001,-4.599,-4.5962,-4.5906,-4.5893,-4.5864,-4.5852,-4.5816,-4.5813,-4.5769,-4.5769,-4.5792,-4.5799,-4.5794,0,0,0,-4.6027,-4.6019,-4.6001,-4.5988,-4.5963,-4.5923,-4.5894,-4.5861,-4.5834,-4.5815,-4.5769,-4.5769,-4.5791,-4.5798,-4.5794,-4.5794,-4.5796,0,0,-4.6028,-4.602,-4.6011,-4.5993,-4.5962,-4.5932,-4.5902,-4.5856,-4.5832,-4.579,-4.5788,-4.5793,-4.5799,-4.5794,-4.5804,-4.5806,0,0,0,-4.6017,-4.6011,-4.5999,-4.5977,-4.5945,-4.5917,-4.5875,-4.5857,-4.5822,-4.5817,-4.5789,-4.5792,-4.5788,-4.5787,-4.5789,-4.5784,-4.577,-4.577,-4.577,-4.6043,-4.6018,-4.6001,-4.5968,-4.5947,-4.5905,-4.5883,-4.5852,-4.5828,-4.5823,-4.581,-4.5819,-4.5819,-4.582,-4.5816,-4.5808,-4.5808,-4.5808,-4.5808,-4.6041,-4.6028,-4.6003,-4.5977,-4.5949,-4.5924,-4.5883,-4.5868,-4.5838,-4.5826,-4.5822,-4.581,-4.5824,-4.5818,-4.581,-4.581,-4.5809,-4.5809,-4.5809,-4.6055,-4.6044,-4.6028,-4.5995,-4.5971,-4.5935,-4.5911,-4.5884,-4.5858,-4.5854,-4.5837,-4.5837,-4.5832,-4.5848,-4.5848,-4.5848,-4.5849,-4.5849,-4.5849,-4.6076,-4.6056,-4.6041,-4.601,-4.5993,-4.5967,-4.5925,-4.5906,-4.5877,-4.5859,-4.5859,-4.5836,-4.5831,-4.583,-4.5849,-4.5849,-4.5849,-4.5849,-4.5849,-4.6082,-4.6077,-4.6054,-4.6038,-4.5998,-4.5976,-4.5945,-4.5908,-4.5888,-4.5876,-4.5854,-4.5856,-4.5844,-4.5842,-4.5841,-4.5861,-4.5861,-4.5861,-4.5861,-4.6093,-4.6087,-4.6058,-4.6034,-4.6006,-4.5977,-4.5947,-4.5914,-4.5878,-4.5864,-4.5857,-4.5854,-4.5853,-4.5841,-4.584,-4.5838,-4.5857,-4.5857,-4.5857,-4.6095,-4.6085,-4.6068,-4.6039,-4.6006,-4.5977,-4.5949,-4.5917,-4.5875,-4.5856,-4.5851,-4.5851,-4.5845,-4.5845,-4.5825,-4.5823,-4.582,0,0]}]]